Darstellungsparameter: Aktuell verwendete Einstellungen:
Skalierung der Graphiken ... ?
xyx+y,   Skalierungsfaktor:      Skalierung: Modus: x, Faktor: 1
Darstellungszeitraum ... ?
Vom - - bis: - -   Zeitraum: 13.07.2019 - 13.07.2019
Min/Max/Avg-Anzeige ... ?
Zeige MMA aktuell
Zeige MMA Monat
Zeige MMA alles
Zeige --A aktuell
Zeige --A Monat
Zeige --A alles
Keine MMA-Anzeige
MMA:
Keine MMA-Graphiken
MMA-Basis: 13.07.2019 - 13.07.2019
Quicknavigation für Darstellung... ?
Tage:      1T, 2T, 3T, 5T -1T -2T -3T -5T +1T +2T +3T +5T
Wochen: 1W, 2W, 3W -1W -2W -3W +1W +2W +3W
Monate: 1M, 3M, 6M -1M -3M -6M +1M +3M +6M
Jahre:    1J, 3J, 5J, 10J -1J -3J -5J -10J +1J +3J +5J +10J
Nutze für die Darstellung ... ?
Originaldaten oder Mittelwerte auf ...
Stundenbasis Tagesbasis Wochenbasis
Monatsbasis Jahresbasis      Datenbasis: Original-Daten
Darstellen als:
Statistik (Auto) Statistik J:M      Darstellung:
Zur Graphik,    zurück zur Übersicht aller Sensoren.
 
Tabellarische Datenbersicht: ?
 
Sensor: Nr:Datum:Temp:Feuchte:Taupunkt:
Aussen-T/F 1 13-07-2019 00:00:00 16.2 C 89 % 14.39 C
2 13-07-2019 00:05:00 16.2 C 88 % 14.21 C
3 13-07-2019 00:10:00 16.2 C 88 % 14.21 C
4 13-07-2019 00:15:00 16.2 C 87 % 14.03 C
5 13-07-2019 00:20:00 16.3 C 87 % 14.13 C
6 13-07-2019 00:25:00 16.4 C 86 % 14.05 C
7 13-07-2019 00:30:00 16.4 C 86 % 14.05 C
8 13-07-2019 00:35:00 16.6 C 86 % 14.25 C
9 13-07-2019 00:40:00 16.4 C 85 % 13.87 C
10 13-07-2019 00:45:00 16.4 C 86 % 14.05 C
11 13-07-2019 00:50:00 16.4 C 86 % 14.05 C
12 13-07-2019 00:55:00 16.4 C 86 % 14.05 C
13 13-07-2019 01:00:00 16.4 C 86 % 14.05 C
14 13-07-2019 01:05:00 16.5 C 86 % 14.15 C
15 13-07-2019 01:10:00 16.5 C 88 % 14.51 C
16 13-07-2019 01:15:00 16.4 C 88 % 14.41 C
17 13-07-2019 01:20:00 16.3 C 89 % 14.48 C
18 13-07-2019 01:25:00 16.2 C 90 % 14.56 C
19 13-07-2019 01:30:00 16.1 C 91 % 14.63 C
20 13-07-2019 01:35:00 16 C 91 % 14.53 C
21 13-07-2019 01:40:00 15.9 C 92 % 14.6 C
22 13-07-2019 01:45:00 15.8 C 92 % 14.5 C
23 13-07-2019 01:50:00 15.8 C 93 % 14.67 C
24 13-07-2019 01:55:00 15.7 C 93 % 14.57 C
25 13-07-2019 02:00:00 15.7 C 93 % 14.57 C
Sensor: Nr:Datum:Temp:Feuchte:Taupunkt:
Aussen-T/F 26 13-07-2019 02:05:00 15.7 C 93 % 14.57 C
27 13-07-2019 02:10:00 15.6 C 94 % 14.64 C
28 13-07-2019 02:15:00 15.6 C 94 % 14.64 C
29 13-07-2019 02:20:00 15.6 C 94 % 14.64 C
30 13-07-2019 02:25:00 15.6 C 94 % 14.64 C
31 13-07-2019 02:30:00 15.5 C 94 % 14.54 C
32 13-07-2019 02:35:00 15.4 C 94 % 14.44 C
33 13-07-2019 02:40:00 15.4 C 94 % 14.44 C
34 13-07-2019 02:45:00 15.4 C 94 % 14.44 C
35 13-07-2019 02:50:00 15.4 C 95 % 14.6 C
36 13-07-2019 02:55:00 15.3 C 95 % 14.5 C
37 13-07-2019 03:00:00 15.3 C 95 % 14.5 C
38 13-07-2019 03:05:00 15.3 C 94 % 14.34 C
39 13-07-2019 03:10:00 15.3 C 95 % 14.5 C
40 13-07-2019 03:15:00 15.2 C 95 % 14.4 C
41 13-07-2019 03:20:00 15.2 C 95 % 14.4 C
42 13-07-2019 03:25:00 15.2 C 95 % 14.4 C
43 13-07-2019 03:30:00 15.1 C 95 % 14.31 C
44 13-07-2019 03:35:00 15.1 C 95 % 14.31 C
45 13-07-2019 03:40:00 15.1 C 95 % 14.31 C
46 13-07-2019 03:45:00 15.1 C 95 % 14.31 C
47 13-07-2019 03:50:00 15.1 C 95 % 14.31 C
48 13-07-2019 03:55:00 15.1 C 95 % 14.31 C
49 13-07-2019 04:00:00 15.1 C 95 % 14.31 C
50 13-07-2019 04:05:00 15.1 C 95 % 14.31 C
Sensor: Nr:Datum:Temp:Feuchte:Taupunkt:
Aussen-T/F 51 13-07-2019 04:10:00 15.1 C 95 % 14.31 C
52 13-07-2019 04:15:00 15 C 95 % 14.21 C
53 13-07-2019 04:20:00 15 C 95 % 14.21 C
54 13-07-2019 04:25:00 15 C 95 % 14.21 C
55 13-07-2019 04:30:00 15 C 95 % 14.21 C
56 13-07-2019 04:35:00 15 C 95 % 14.21 C
57 13-07-2019 04:40:00 14.9 C 95 % 14.11 C
58 13-07-2019 04:45:00 14.9 C 95 % 14.11 C
59 13-07-2019 04:50:00 14.9 C 95 % 14.11 C
60 13-07-2019 04:55:00 14.9 C 96 % 14.27 C
61 13-07-2019 05:00:00 15 C 96 % 14.37 C
62 13-07-2019 05:05:00 15 C 96 % 14.37 C
63 13-07-2019 05:10:00 14.9 C 96 % 14.27 C
64 13-07-2019 05:15:00 14.9 C 96 % 14.27 C
65 13-07-2019 05:20:00 14.9 C 96 % 14.27 C
66 13-07-2019 05:25:00 14.9 C 96 % 14.27 C
67 13-07-2019 05:30:00 14.9 C 96 % 14.27 C
68 13-07-2019 05:35:00 14.9 C 96 % 14.27 C
69 13-07-2019 05:40:00 14.9 C 96 % 14.27 C
70 13-07-2019 05:45:00 14.9 C 96 % 14.27 C
71 13-07-2019 05:50:00 14.9 C 96 % 14.27 C
72 13-07-2019 05:55:00 14.8 C 96 % 14.17 C
73 13-07-2019 06:00:00 14.8 C 96 % 14.17 C
74 13-07-2019 06:05:00 14.8 C 96 % 14.17 C
75 13-07-2019 06:10:00 14.8 C 96 % 14.17 C
Sensor: Nr:Datum:Temp:Feuchte:Taupunkt:
Aussen-T/F 76 13-07-2019 06:15:00 14.8 C 96 % 14.17 C
77 13-07-2019 06:20:00 14.8 C 96 % 14.17 C
78 13-07-2019 06:25:00 14.8 C 96 % 14.17 C
79 13-07-2019 06:30:00 14.7 C 96 % 14.07 C
80 13-07-2019 06:35:00 14.7 C 96 % 14.07 C
81 13-07-2019 06:40:00 14.7 C 96 % 14.07 C
82 13-07-2019 06:45:00 14.7 C 96 % 14.07 C
83 13-07-2019 06:50:00 14.7 C 96 % 14.07 C
84 13-07-2019 06:55:00 14.7 C 96 % 14.07 C
85 13-07-2019 07:00:00 14.7 C 96 % 14.07 C
86 13-07-2019 07:05:00 14.7 C 96 % 14.07 C
87 13-07-2019 07:10:00 14.7 C 96 % 14.07 C
88 13-07-2019 07:15:00 14.8 C 96 % 14.17 C
89 13-07-2019 07:20:00 14.8 C 96 % 14.17 C
90 13-07-2019 07:25:00 14.8 C 96 % 14.17 C
91 13-07-2019 07:30:00 14.9 C 96 % 14.27 C
92 13-07-2019 07:35:00 14.9 C 96 % 14.27 C
93 13-07-2019 07:40:00 15.1 C 96 % 14.47 C
94 13-07-2019 07:45:00 15.2 C 97 % 14.73 C
95 13-07-2019 07:50:00 15.3 C 97 % 14.83 C
96 13-07-2019 07:55:00 15.3 C 96 % 14.67 C
97 13-07-2019 08:00:00 15.4 C 96 % 14.77 C
98 13-07-2019 08:05:00 15.5 C 97 % 15.03 C
99 13-07-2019 08:10:00 15.6 C 97 % 15.13 C
100 13-07-2019 08:15:00 15.6 C 96 % 14.96 C
Sensor: Nr:Datum:Temp:Feuchte:Taupunkt:
Aussen-T/F 101 13-07-2019 08:20:00 15.4 C 96 % 14.77 C
102 13-07-2019 08:25:00 15.5 C 96 % 14.86 C
103 13-07-2019 08:30:00 15.6 C 96 % 14.96 C
104 13-07-2019 08:35:00 15.7 C 96 % 15.06 C
105 13-07-2019 08:40:00 15.7 C 96 % 15.06 C
106 13-07-2019 08:45:00 15.8 C 96 % 15.16 C
107 13-07-2019 08:50:00 15.8 C 96 % 15.16 C
108 13-07-2019 08:55:00 15.8 C 96 % 15.16 C
109 13-07-2019 09:00:00 15.7 C 96 % 15.06 C
110 13-07-2019 09:05:00 15.7 C 96 % 15.06 C
111 13-07-2019 09:10:00 15.7 C 96 % 15.06 C
112 13-07-2019 09:15:00 15.7 C 96 % 15.06 C
113 13-07-2019 09:20:00 15.8 C 96 % 15.16 C
114 13-07-2019 09:25:00 15.9 C 96 % 15.26 C
115 13-07-2019 09:30:00 16 C 96 % 15.36 C
116 13-07-2019 09:35:00 15.9 C 95 % 15.1 C
117 13-07-2019 09:40:00 15.8 C 95 % 15 C
118 13-07-2019 09:45:00 15.9 C 95 % 15.1 C
119 13-07-2019 09:50:00 15.9 C 95 % 15.1 C
120 13-07-2019 09:55:00 16 C 94 % 15.03 C
121 13-07-2019 10:00:00 16.1 C 93 % 14.97 C
122 13-07-2019 10:05:00 16.1 C 93 % 14.97 C
123 13-07-2019 10:10:00 16.2 C 93 % 15.07 C
124 13-07-2019 10:15:00 16.3 C 92 % 15 C
125 13-07-2019 10:20:00 16.4 C 91 % 14.93 C
Sensor: Nr:Datum:Temp:Feuchte:Taupunkt:
Aussen-T/F 126 13-07-2019 10:25:00 16.6 C 90 % 14.95 C
127 13-07-2019 10:30:00 16.7 C 90 % 15.05 C
128 13-07-2019 10:35:00 16.7 C 89 % 14.88 C
129 13-07-2019 10:40:00 16.8 C 89 % 14.98 C
130 13-07-2019 10:45:00 16.7 C 90 % 15.05 C
131 13-07-2019 10:50:00 16.7 C 91 % 15.22 C
132 13-07-2019 10:55:00 16.7 C 91 % 15.22 C
133 13-07-2019 11:00:00 16.8 C 92 % 15.49 C
134 13-07-2019 11:05:00 17 C 92 % 15.69 C
135 13-07-2019 11:10:00 17 C 90 % 15.35 C
136 13-07-2019 11:15:00 17.1 C 90 % 15.45 C
137 13-07-2019 11:20:00 17.3 C 90 % 15.64 C
138 13-07-2019 11:25:00 17.3 C 88 % 15.29 C
139 13-07-2019 11:30:00 17.5 C 88 % 15.49 C
140 13-07-2019 11:35:00 17.7 C 88 % 15.69 C
141 13-07-2019 11:40:00 17.9 C 87 % 15.71 C
142 13-07-2019 11:45:00 18.1 C 86 % 15.72 C
143 13-07-2019 11:50:00 18.2 C 85 % 15.64 C
144 13-07-2019 11:55:00 18.3 C 84 % 15.55 C
145 13-07-2019 12:00:00 18.4 C 84 % 15.65 C
146 13-07-2019 12:05:00 18.4 C 82 % 15.27 C
147 13-07-2019 12:10:00 18.4 C 82 % 15.27 C
148 13-07-2019 12:15:00 18.4 C 82 % 15.27 C
149 13-07-2019 12:20:00 18.5 C 83 % 15.56 C
150 13-07-2019 12:25:00 18.7 C 81 % 15.37 C
Sensor: Nr:Datum:Temp:Feuchte:Taupunkt:
Aussen-T/F 151 13-07-2019 12:30:00 18.8 C 82 % 15.66 C
152 13-07-2019 12:35:00 18.9 C 81 % 15.57 C
153 13-07-2019 12:40:00 19 C 81 % 15.67 C
154 13-07-2019 12:45:00 19.1 C 80 % 15.57 C
155 13-07-2019 12:50:00 19.2 C 80 % 15.67 C
156 13-07-2019 12:55:00 19.3 C 80 % 15.76 C
157 13-07-2019 13:00:00 19.4 C 78 % 15.47 C
158 13-07-2019 13:05:00 19.4 C 79 % 15.66 C
159 13-07-2019 13:10:00 19.4 C 77 % 15.27 C
160 13-07-2019 13:15:00 19.7 C 78 % 15.76 C
161 13-07-2019 13:20:00 19.9 C 76 % 15.54 C
162 13-07-2019 13:25:00 19.9 C 74 % 15.13 C
163 13-07-2019 13:30:00 19.8 C 76 % 15.45 C
164 13-07-2019 13:35:00 19.7 C 75 % 15.15 C
165 13-07-2019 13:40:00 19.6 C 75 % 15.05 C
166 13-07-2019 13:45:00 19.7 C 76 % 15.35 C
167 13-07-2019 13:50:00 19.9 C 73 % 14.92 C
168 13-07-2019 13:55:00 20.3 C 74 % 15.51 C
169 13-07-2019 14:00:00 20.7 C 71 % 15.25 C
170 13-07-2019 14:05:00 20.7 C 72 % 15.47 C
171 13-07-2019 14:10:00 20.8 C 73 % 15.78 C
172 13-07-2019 14:15:00 20.9 C 69 % 15 C
173 13-07-2019 14:20:00 21.2 C 69 % 15.29 C
174 13-07-2019 14:25:00 21.3 C 68 % 15.16 C
175 13-07-2019 14:30:00 21.4 C 69 % 15.48 C
Sensor: Nr:Datum:Temp:Feuchte:Taupunkt:
Aussen-T/F 176 13-07-2019 14:35:00 21.6 C 66 % 14.98 C
177 13-07-2019 14:40:00 21.7 C 66 % 15.07 C
178 13-07-2019 14:45:00 21.6 C 66 % 14.98 C
179 13-07-2019 14:50:00 21.2 C 70 % 15.51 C
180 13-07-2019 14:55:00 20.7 C 72 % 15.47 C
181 13-07-2019 15:00:00 20.4 C 74 % 15.61 C
182 13-07-2019 15:05:00 20.4 C 75 % 15.82 C
183 13-07-2019 15:10:00 20.6 C 74 % 15.8 C
184 13-07-2019 15:15:00 20.8 C 72 % 15.57 C
185 13-07-2019 15:20:00 20.9 C 71 % 15.45 C
186 13-07-2019 15:25:00 21 C 73 % 15.98 C
187 13-07-2019 15:30:00 21.3 C 73 % 16.26 C
188 13-07-2019 15:35:00 21.6 C 70 % 15.89 C
189 13-07-2019 15:40:00 21.8 C 67 % 15.4 C
190 13-07-2019 15:45:00 22 C 68 % 15.82 C
191 13-07-2019 15:50:00 21.8 C 68 % 15.63 C
192 13-07-2019 15:55:00 21.6 C 68 % 15.44 C
193 13-07-2019 16:00:00 21.5 C 68 % 15.35 C
194 13-07-2019 16:05:00 21.9 C 69 % 15.96 C
195 13-07-2019 16:10:00 21.8 C 66 % 15.17 C
196 13-07-2019 16:15:00 21.3 C 67 % 14.93 C
197 13-07-2019 16:20:00 20.8 C 68 % 14.68 C
198 13-07-2019 16:25:00 20.6 C 69 % 14.71 C
199 13-07-2019 16:30:00 20.7 C 69 % 14.81 C
200 13-07-2019 16:35:00 20.6 C 69 % 14.71 C
Sensor: Nr:Datum:Temp:Feuchte:Taupunkt:
Aussen-T/F 201 13-07-2019 16:40:00 20.4 C 70 % 14.75 C
202 13-07-2019 16:45:00 20.4 C 70 % 14.75 C
203 13-07-2019 16:50:00 20.4 C 71 % 14.97 C
204 13-07-2019 16:55:00 20.5 C 71 % 15.06 C
205 13-07-2019 17:00:00 20.6 C 71 % 15.16 C
206 13-07-2019 17:05:00 20.7 C 69 % 14.81 C
207 13-07-2019 17:10:00 20.8 C 70 % 15.13 C
208 13-07-2019 17:15:00 21 C 69 % 15.1 C
209 13-07-2019 17:20:00 21.1 C 67 % 14.74 C
210 13-07-2019 17:25:00 21.3 C 69 % 15.38 C
211 13-07-2019 17:30:00 21.9 C 69 % 15.96 C
212 13-07-2019 17:35:00 22.5 C 67 % 16.07 C
213 13-07-2019 17:40:00 22.9 C 65 % 15.97 C
214 13-07-2019 17:45:00 23.2 C 64 % 16.01 C
215 13-07-2019 17:50:00 23.2 C 63 % 15.77 C
216 13-07-2019 17:55:00 22.9 C 63 % 15.48 C
217 13-07-2019 18:00:00 22.6 C 64 % 15.45 C
218 13-07-2019 18:05:00 22.2 C 65 % 15.31 C
219 13-07-2019 18:10:00 22.2 C 65 % 15.31 C
220 13-07-2019 18:15:00 22.3 C 65 % 15.4 C
221 13-07-2019 18:20:00 22.4 C 63 % 15.01 C
222 13-07-2019 18:25:00 22.3 C 64 % 15.16 C
223 13-07-2019 18:30:00 22.2 C 65 % 15.31 C
224 13-07-2019 18:35:00 22.2 C 64 % 15.07 C
225 13-07-2019 18:40:00 22.2 C 64 % 15.07 C
Sensor: Nr:Datum:Temp:Feuchte:Taupunkt:
Aussen-T/F 226 13-07-2019 18:45:00 22.3 C 65 % 15.4 C
227 13-07-2019 18:50:00 22.7 C 64 % 15.54 C
228 13-07-2019 18:55:00 23 C 63 % 15.58 C
229 13-07-2019 19:00:00 23.2 C 63 % 15.77 C
230 13-07-2019 19:05:00 23.3 C 61 % 15.36 C
231 13-07-2019 19:10:00 23.2 C 62 % 15.52 C
232 13-07-2019 19:15:00 23.1 C 63 % 15.67 C
233 13-07-2019 19:20:00 23 C 62 % 15.33 C
234 13-07-2019 19:25:00 22.9 C 63 % 15.48 C
235 13-07-2019 19:30:00 22.8 C 63 % 15.39 C
236 13-07-2019 19:35:00 22.6 C 62 % 14.95 C
237 13-07-2019 19:40:00 22.4 C 63 % 15.01 C
238 13-07-2019 19:45:00 22.3 C 64 % 15.16 C
239 13-07-2019 19:50:00 22 C 65 % 15.12 C
240 13-07-2019 19:55:00 21.7 C 65 % 14.84 C
241 13-07-2019 20:00:00 21.3 C 67 % 14.93 C
242 13-07-2019 20:05:00 21.1 C 68 % 14.97 C
243 13-07-2019 20:10:00 20.8 C 69 % 14.91 C
244 13-07-2019 20:15:00 20.7 C 69 % 14.81 C
245 13-07-2019 20:20:00 20.6 C 70 % 14.94 C
246 13-07-2019 20:25:00 20.4 C 70 % 14.75 C
247 13-07-2019 20:30:00 20.4 C 71 % 14.97 C
248 13-07-2019 20:35:00 20.3 C 72 % 15.09 C
249 13-07-2019 20:40:00 20.2 C 71 % 14.78 C
250 13-07-2019 20:45:00 20 C 71 % 14.58 C
Sensor: Nr:Datum:Temp:Feuchte:Taupunkt:
Aussen-T/F 251 13-07-2019 20:50:00 19.9 C 72 % 14.7 C
252 13-07-2019 20:55:00 19.8 C 72 % 14.61 C
253 13-07-2019 21:00:00 19.7 C 72 % 14.51 C
254 13-07-2019 21:05:00 19.6 C 73 % 14.63 C
255 13-07-2019 21:10:00 19.6 C 75 % 15.05 C
256 13-07-2019 21:15:00 19.5 C 76 % 15.16 C
257 13-07-2019 21:20:00 19.4 C 78 % 15.47 C
258 13-07-2019 21:25:00 19.3 C 79 % 15.57 C
259 13-07-2019 21:30:00 19.1 C 78 % 15.18 C
260 13-07-2019 21:35:00 18.9 C 79 % 15.18 C
261 13-07-2019 21:40:00 18.9 C 79 % 15.18 C
262 13-07-2019 21:45:00 18.8 C 79 % 15.08 C
263 13-07-2019 21:50:00 18.8 C 79 % 15.08 C
264 13-07-2019 21:55:00 18.8 C 80 % 15.28 C
265 13-07-2019 22:00:00 18.8 C 80 % 15.28 C
266 13-07-2019 22:05:00 18.8 C 81 % 15.47 C
267 13-07-2019 22:10:00 18.7 C 82 % 15.57 C
268 13-07-2019 22:15:00 18.6 C 84 % 15.84 C
269 13-07-2019 22:20:00 18.5 C 85 % 15.93 C
270 13-07-2019 22:25:00 18.3 C 86 % 15.92 C
271 13-07-2019 22:30:00 18.2 C 86 % 15.82 C
272 13-07-2019 22:35:00 18 C 87 % 15.8 C
273 13-07-2019 22:40:00 17.8 C 87 % 15.61 C
274 13-07-2019 22:45:00 17.7 C 87 % 15.51 C
275 13-07-2019 22:50:00 17.7 C 88 % 15.69 C
Sensor: Nr:Datum:Temp:Feuchte:Taupunkt:
Aussen-T/F 276 13-07-2019 22:55:00 17.6 C 88 % 15.59 C
277 13-07-2019 23:00:00 17.4 C 88 % 15.39 C
278 13-07-2019 23:05:00 17.4 C 89 % 15.57 C
279 13-07-2019 23:10:00 17.3 C 89 % 15.47 C
280 13-07-2019 23:15:00 17.3 C 89 % 15.47 C
281 13-07-2019 23:20:00 17.3 C 90 % 15.64 C
282 13-07-2019 23:25:00 17.2 C 90 % 15.55 C
283 13-07-2019 23:30:00 17.2 C 90 % 15.55 C
284 13-07-2019 23:35:00 17.2 C 90 % 15.55 C
285 13-07-2019 23:40:00 17.1 C 90 % 15.45 C
286 13-07-2019 23:45:00 17.1 C 90 % 15.45 C
287 13-07-2019 23:50:00 17.1 C 90 % 15.45 C
288 13-07-2019 23:55:00 17 C 90 % 15.35 C

Legende:
   Min
   Max


Maximal/Minimal-Werte vom 13.07.2019 - 13.07.2019

Sensor Min Max Avg
Temp
(Aussen-T/F)
14.7 °C
13-07-2019  06:30:00
23.3 °C
13-07-2019  19:05:00
18 °C
Feuchte
(Aussen-T/F)
61 %
13-07-2019  19:05:00
97 %
13-07-2019  07:45:00
83.45 %
Taupunkt
(Aussen-T/F)
13.87 C
13-07-2019  00:40:00
16.26 C
13-07-2019  15:30:00
14.92 C

Die Daten stammen von einer Davis Vantage Pro 2 Wetter-Station und werden unter Linux mit der Software wview2wettercgi und aufbereitet. Alle Angaben erfolgen ohne Gewähr für ihre Vollständigkeit oder Richtigkeit.
Kontakt: Rainer Krienke krienke@uni-koblenz.de . Meine Webseiten an der Uni Koblenz oder privat.
Version: $Revision: 0.78 $